CW7015 Weather Reports


Display with metric or nautical units.
time (UTC)temp
F
wind
direction
speed
MPH
gust
MPH
rain 1hr
in
rain 24hr
in
rain mn
in
humidity
%
barometer
mb
20240525104547 51 207 0.0 3.0 0.00 0.00 0.00 52 1006.8
20240525104521 51 207 0.0 3.0 0.00 0.00 0.00 52 998.8
20240525104101 51 207 1.0 3.0 0.00 0.00 0.00 51 999.0
20240525104028 51 203 1.0 3.0 0.00 0.00 0.00 51 1006.9
20240525103625 51 175 1.0 3.0 0.00 0.00 0.00 51 999.0
20240525103541 51 198 1.0 3.0 0.00 0.00 0.00 51 1006.9
20240525103031 51 210 1.0 4.0 0.00 0.00 0.00 51 1006.9
20240525103000 51 210 0.0 4.0 0.00 0.00 0.00 51 999.0
20240525102545 51 167 0.0 4.0 0.00 0.00 0.00 51 999.1
20240525102533 52 168 1.0 4.0 0.00 0.00 0.00 51 1007.0
20240525102108 51 217 1.0 5.0 0.00 0.00 0.00 50 999.1
20240525102024 52 187 2.0 5.0 0.00 0.00 0.00 50 1007.0
20240525101536 52 190 2.0 5.0 0.00 0.00 0.00 50 1007.1
20240525101505 51 159 2.0 5.0 0.00 0.00 0.00 50 999.2
20240525101050 51 201 1.0 4.0 0.00 0.00 0.00 51 999.1
20240525101038 52 201 1.0 4.0 0.00 0.00 0.00 51 1007.0
20240525100613 51 200 1.0 3.0 0.00 0.00 0.00 51 999.1
20240525100528 51 239 1.0 3.0 0.00 0.00 0.00 51 1007.1
20240525100042 52 181 1.0 2.0 0.00 0.00 0.00 51 1007.0
20240525100021 51 188 0.0 2.0 0.00 0.00 0.00 51 999.1
20240525095553 52 219 1.0 2.0 0.00 0.00 0.00 51 1007.1
20240525095512 51 219 0.0 2.0 0.00 0.00 0.00 51 999.2
20240525095055 51 224 0.0 2.0 0.00 0.00 0.00 51 999.2
20240525095033 52 224 0.0 2.0 0.00 0.00 0.00 51 1007.3
20240525094616 52 224 0.0 2.0 0.00 0.00 0.00 51 999.4
20240525094524 52 234 0.0 1.0 0.00 0.00 0.00 51 1007.3
20240525094036 52 234 0.0 2.0 0.00 0.00 0.00 50 1007.5
20240525094015 52 234 0.0 2.0 0.00 0.00 0.00 50 999.5
20240525093558 52 234 0.0 2.0 0.00 0.00 0.00 50 999.6
20240525093534 52 248 1.0 2.0 0.00 0.00 0.00 50 1007.5
20240525093121 52 186 0.0 2.0 0.00 0.00 0.00 49 999.6
20240525093025 53 186 0.0 2.0 0.00 0.00 0.00 49 1007.5
20240525092624 52 186 0.0 2.0 0.00 0.00 0.00 49 999.5
20240525092536 53 186 0.0 2.0 0.00 0.00 0.00 49 1007.6
20240525092146 53 186 0.0 2.0 0.00 0.00 0.00 49 999.6
20240525092047 53 186 0.0 2.0 0.00 0.00 0.00 49 1007.6
20240525091551 53 184 0.0 2.0 0.00 0.00 0.00 48 999.7
20240525091528 53 184 0.0 2.0 0.00 0.00 0.00 48 1007.6
20240525091105 53 178 0.0 2.0 0.00 0.00 0.00 48 999.6
20240525091040 53 178 0.0 2.0 0.00 0.00 0.00 48 1007.6
20240525090630 53 177 0.0 0.0 0.00 0.00 0.00 48 999.6
20240525090551 54 177 0.0 0.0 0.00 0.00 0.00 48 1007.6
20240525090128 53 177 0.0 2.0 0.00 0.00 0.00 47 999.6
20240525090058 54 177 0.0 3.0 0.00 0.00 0.00 47 1007.6
20240525085527 54 177 0.0 3.0 0.00 0.00 0.00 46 1007.6
20240525085503 54 177 0.0 3.0 0.00 0.00 0.00 46 999.6
20240525085046 54 190 0.0 2.0 0.00 0.00 0.00 45 999.7
20240525085029 54 190 1.0 2.0 0.00 0.00 0.00 45 1007.6
20240525084609 54 198 0.0 3.0 0.00 0.00 0.00 45 999.7
20240525084540 54 164 0.0 3.0 0.00 0.00 0.00 46 1007.7
20240525084031 54 198 1.0 3.0 0.00 0.00 0.00 45 1007.6
20240525084008 54 209 1.0 3.0 0.00 0.00 0.00 45 999.7
20240525083550 54 175 0.0 2.0 0.00 0.00 0.00 45 999.7
20240525083534 55 175 1.0 2.0 0.00 0.00 0.00 45 1007.7
20240525083114 54 171 0.0 1.0 0.00 0.00 0.00 45 999.7
20240525083046 55 171 0.0 1.0 0.00 0.00 0.00 45 1007.6
20240525082616 55 171 0.0 1.0 0.00 0.00 0.00 45 999.8
20240525082531 55 171 0.0 1.0 0.00 0.00 0.00 45 1007.7
20240525082044 55 169 0.0 2.0 0.00 0.00 0.00 44 1007.7
20240525082014 55 169 0.0 2.0 0.00 0.00 0.00 44 999.8
20240525081558 55 169 0.0 2.0 0.00 0.00 0.00 43 999.8
20240525081527 55 169 1.0 2.0 0.00 0.00 0.00 43 1007.8
20240525081119 55 227 0.0 2.0 0.00 0.00 0.00 43 1000.0
20240525081038 55 227 0.0 2.0 0.00 0.00 0.00 43 1007.9
20240525080643 55 227 0.0 3.0 0.00 0.00 0.00 43 1000.1
20240525080527 56 227 1.0 3.0 0.00 0.00 0.00 43 1008.0
20240525080040 55 196 1.0 3.0 0.00 0.00 0.00 43 1000.1
20240525080027 56 196 1.0 3.0 0.00 0.00 0.00 43 1008.0
20240525075601 55 188 0.0 1.0 0.00 0.00 0.00 43 1000.2
20240525075538 56 188 0.0 1.0 0.00 0.00 0.00 43 1008.1
20240525075125 56 188 0.0 1.0 0.00 0.00 0.00 42 1000.2
20240525075029 56 188 1.0 1.0 0.00 0.00 0.00 42 1008.2
20240525074537 57 188 0.0 1.0 0.00 0.00 0.00 42 1008.2
20240525074502 56 188 0.0 1.0 0.00 0.00 0.00 41 1000.3
20240525074051 57 193 0.0 0.0 0.00 0.00 0.00 41 1008.2
20240525074025 57 193 0.0 0.0 0.00 0.00 0.00 41 1000.4
20240525073608 57 193 0.0 0.0 0.00 0.00 0.00 40 1000.5
20240525073553 57 193 0.0 0.0 0.00 0.00 0.00 40 1008.4
20240525073110 57 193 0.0 1.0 0.00 0.00 0.00 40 1000.4
20240525073023 58 193 0.0 1.0 0.00 0.00 0.00 40 1008.4
20240525072533 58 193 0.0 2.0 0.00 0.00 0.00 39 1008.4
20240525072508 58 193 0.0 2.0 0.00 0.00 0.00 39 1000.5
20240525072052 58 182 0.0 4.0 0.00 0.00 0.00 39 1000.7
20240525072035 58 182 1.0 4.0 0.00 0.00 0.00 39 1008.4
20240525071635 58 161 0.0 4.0 0.00 0.00 0.00 39 1000.7
20240525071527 58 178 2.0 4.0 0.00 0.00 0.00 39 1008.6
20240525071038 58 259 1.0 4.0 0.00 0.00 0.00 39 1008.6
20240525071012 58 259 1.0 4.0 0.00 0.00 0.00 39 1000.8
20240525070554 58 194 1.0 4.0 0.00 0.00 0.00 38 1000.8
20240525070537 58 198 1.0 4.0 0.00 0.00 0.00 38 1008.8
20240525070118 58 194 0.0 3.0 0.00 0.00 0.00 39 1001.0
20240525070028 59 198 1.0 3.0 0.00 0.00 0.00 39 1008.8
20240525065537 59 185 1.0 3.0 0.00 0.00 0.00 38 1008.8
20240525065518 58 185 0.0 3.0 0.00 0.00 0.00 38 1001.0
20240525065049 59 148 1.0 3.0 0.00 0.00 0.00 38 1008.9
20240525065022 59 130 0.0 2.0 0.00 0.00 0.00 38 1001.1
20240525064602 59 159 0.0 2.0 0.00 0.00 0.00 38 1001.1
20240525064550 59 159 1.0 2.0 0.00 0.00 0.00 38 1008.9
20240525064103 59 211 0.0 5.0 0.00 0.00 0.00 37 1001.1
20240525064040 60 211 0.0 5.0 0.00 0.00 0.00 37 1008.9
20240525063628 59 202 1.0 5.0 0.00 0.00 0.00 37 1001.2
20240525063530 60 202 1.0 5.0 0.00 0.00 0.00 37 1009.0
20240525063045 60 158 1.0 4.0 0.00 0.00 0.00 37 1001.2
20240525063032 60 194 1.0 3.0 0.00 0.00 0.00 37 1009.0
20240525062609 60 144 0.0 3.0 0.00 0.00 0.00 37 1001.5
20240525062524 60 144 1.0 3.0 0.00 0.00 0.00 37 1009.3
20240525062034 61 52 1.0 3.0 0.00 0.00 0.00 36 1009.4
20240525062004 60 52 0.0 3.0 0.00 0.00 0.00 36 1001.6
20240525061550 60 165 0.0 3.0 0.00 0.00 0.00 36 1001.8
20240525061536 61 165 1.0 3.0 0.00 0.00 0.00 36 1009.5
20240525061113 61 130 1.0 4.0 0.00 0.00 0.00 36 1001.8
20240525061047 61 160 1.0 4.0 0.00 0.00 0.00 36 1009.5
20240525060613 61 113 1.0 4.0 0.00 0.00 0.00 35 1001.9
20240525060535 61 78 2.0 4.0 0.00 0.00 0.00 35 1009.6
20240525060047 62 93 2.0 6.0 0.00 0.00 0.00 35 1009.8
20240525060007 61 79 2.0 6.0 0.00 0.00 0.00 35 1002.0
20240525055551 61 75 1.0 6.0 0.00 0.00 0.00 35 1002.0
20240525055524 62 75 2.0 6.0 0.00 0.00 0.00 35 1009.8
20240525055114 61 82 1.0 3.0 0.00 0.00 0.00 34 1002.2
20240525055034 62 77 2.0 3.0 0.00 0.00 0.00 34 1009.8
20240525054543 62 97 1.0 4.0 0.00 0.00 0.00 34 1010.0
20240525054525 62 97 1.0 4.0 0.00 0.00 0.00 34 1002.3
20240525054055 62 73 1.0 4.0 0.00 0.00 0.00 34 1002.3
20240525054043 62 73 2.0 4.0 0.00 0.00 0.00 34 1009.9
20240525053543 63 84 1.0 4.0 0.00 0.00 0.00 33 1010.1
20240525053516 62 84 1.0 4.0 0.00 0.00 0.00 33 1002.4
20240525053101 62 111 1.0 4.0 0.00 0.00 0.00 33 1002.5
20240525053026 63 70 2.0 5.0 0.00 0.00 0.00 33 1010.1
20240525052623 62 78 2.0 5.0 0.00 0.00 0.00 33 1002.6
20240525052536 63 84 2.0 5.0 0.00 0.00 0.00 33 1010.2
20240525052124 63 72 1.0 3.0 0.00 0.00 0.00 33 1002.9
20240525052027 63 71 2.0 4.0 0.00 0.00 0.00 33 1010.5
20240525051543 63 105 1.0 4.0 0.00 0.00 0.00 32 1003.2
20240525051530 63 105 2.0 4.0 0.00 0.00 0.00 32 1010.7
20240525051106 63 92 1.0 3.0 0.00 0.00 0.00 32 1003.3
20240525051040 63 92 2.0 3.0 0.00 0.00 0.00 32 1010.7
20240525050533 63 78 2.0 3.0 0.00 0.00 0.00 33 1010.7
20240525050502 63 78 1.0 3.0 0.00 0.00 0.00 32 1003.2
20240525050024 64 84 1.0 3.0 0.00 0.00 0.00 32 1010.7
20240525050004 63 84 1.0 3.0 0.00 0.00 0.00 32 1003.3
20240525045546 63 82 1.0 4.0 0.00 0.00 0.00 32 1003.4
20240525045526 64 82 1.0 4.0 0.00 0.00 0.00 32 1010.8
20240525045111 63 115 1.0 4.0 0.00 0.00 0.00 31 1003.4
20240525045035 64 163 2.0 4.0 0.00 0.00 0.00 31 1010.9
20240525044610 64 99 1.0 5.0 0.00 0.00 0.00 31 1003.6
20240525044525 64 99 2.0 5.0 0.00 0.00 0.00 31 1011.0
20240525044036 64 79 2.0 5.0 0.00 0.00 0.00 31 1011.0
20240525044010 64 84 1.0 5.0 0.00 0.00 0.00 31 1003.6
20240525043606 64 80 2.0 3.0 0.00 0.00 0.00 31 1011.0
20240525043511 64 86 1.0 3.0 0.00 0.00 0.00 31 1003.7
20240525043035 64 67 2.0 4.0 0.00 0.00 0.00 30 1011.1
20240525043012 64 67 1.0 4.0 0.00 0.00 0.00 31 1003.8
20240525042558 64 106 1.0 7.0 0.00 0.00 0.00 30 1003.8
20240525042538 64 115 2.0 7.0 0.00 0.00 0.00 30 1011.1
20240525042121 64 80 2.0 7.0 0.00 0.00 0.00 30 1003.8
20240525042029 64 74 2.0 7.0 0.00 0.00 0.00 30 1011.1
20240525041540 64 127 1.0 3.0 0.00 0.00 0.00 30 1011.2
20240525041534 64 155 1.0 3.0 0.00 0.00 0.00 30 1003.8
20240525041100 63 157 1.0 4.0 0.00 0.00 0.00 30 1003.9
20240525041042 64 197 1.0 4.0 0.00 0.00 0.00 30 1011.2
20240525040624 63 75 1.0 4.0 0.00 0.00 0.00 29 1003.8
20240525040534 64 74 1.0 4.0 0.00 0.00 0.00 29 1011.1
20240525040148 63 167 0.0 3.0 0.00 0.00 0.00 29 1003.8
20240525040045 63 167 1.0 3.0 0.00 0.00 0.00 29 1011.2
20240525035544 63 168 0.0 3.0 0.00 0.00 0.00 29 1003.9
20240525035525 63 168 1.0 3.0 0.00 0.00 0.00 29 1011.2
20240525035111 63 216 0.0 1.0 0.00 0.00 0.00 29 1003.9
20240525035037 63 216 0.0 1.0 0.00 0.00 0.00 29 1011.2
20240525034529 63 216 0.0 1.0 0.00 0.00 0.00 30 1011.2
20240525034511 63 216 0.0 1.0 0.00 0.00 0.00 30 1003.9
20240525034049 63 225 0.0 0.0 0.00 0.00 0.00 30 1003.8
20240525034029 63 225 0.0 0.0 0.00 0.00 0.00 30 1011.1
20240525033551 64 225 0.0 0.0 0.00 0.00 0.00 32 1011.1
20240525033529 63 225 0.0 0.0 0.00 0.00 0.00 31 1003.7
20240525033114 63 226 0.0 0.0 0.00 0.00 0.00 30 1003.8
20240525033030 64 226 0.0 0.0 0.00 0.00 0.00 30 1011.1
20240525032543 64 225 0.0 0.0 0.00 0.00 0.00 30 1010.9
20240525032512 64 225 0.0 0.0 0.00 0.00 0.00 30 1003.6
20240525032055 64 225 0.0 0.0 0.00 0.00 0.00 29 1003.7
20240525032024 64 225 0.0 0.0 0.00 0.00 0.00 29 1011.1
20240525031618 64 225 0.0 0.0 0.00 0.00 0.00 29 1003.7
20240525031551 65 225 0.0 0.0 0.00 0.00 0.00 29 1011.0
20240525031122 64 225 0.0 1.0 0.00 0.00 0.00 28 1003.6
20240525031042 65 225 0.0 2.0 0.00 0.00 0.00 28 1011.0
20240525030541 65 225 0.0 3.0 0.00 0.00 0.00 27 1003.4
20240525030525 65 225 0.0 3.0 0.00 0.00 0.00 27 1010.8
20240525030104 65 262 1.0 3.0 0.00 0.00 0.00 26 1003.3
20240525030036 65 262 1.0 3.0 0.00 0.00 0.00 26 1010.7
20240525025527 66 230 0.0 1.0 0.00 0.00 0.00 26 1010.5
20240525025503 65 230 0.0 1.0 0.00 0.00 0.00 26 1003.2
20240525025046 66 230 0.0 4.0 0.00 0.00 0.00 26 1003.0
20240525025028 66 230 0.0 4.0 0.00 0.00 0.00 25 1010.4
20240525024610 66 257 0.0 4.0 0.00 0.00 0.00 24 1010.4
20240525024527 66 257 0.0 4.0 0.00 0.00 0.00 24 1003.0
20240525024112 66 219 1.0 4.0 0.00 0.00 0.00 24 1003.0
20240525024030 66 219 1.0 4.0 0.00 0.00 0.00 24 1010.3
20240525023637 66 267 1.0 6.0 0.00 0.00 0.00 25 1002.7
20240525023604 67 204 1.0 8.0 0.00 0.00 0.00 25 1010.1
20240525023034 67 26 3.0 10.0 0.00 0.00 0.00 24 1009.6
20240525023014 66 27 2.0 10.0 0.00 0.00 0.00 24 1002.1
20240525022556 66 308 3.0 10.0 0.00 0.00 0.00 24 1002.1
20240525022535 67 9 3.0 10.0 0.00 0.00 0.00 24 1009.5
20240525022119 66 350 2.0 10.0 0.00 0.00 0.00 24 1002.1
20240525022025 67 345 3.0 10.0 0.00 0.00 0.00 24 1009.7
20240525021535 67 5 3.0 8.0 0.00 0.00 0.00 24 1009.9
20240525021514 66 295 3.0 8.0 0.00 0.00 0.00 24 1002.4
20240525021057 66 269 1.0 5.0 0.00 0.00 0.00 25 1002.5
20240525021037 67 27 1.0 5.0 0.00 0.00 0.00 25 1010.0
20240525020620 66 355 2.0 5.0 0.00 0.00 0.00 25 1002.6
20240525020529 67 289 1.0 5.0 0.00 0.00 0.00 25 1010.2
20240525020041 67 265 2.0 5.0 0.00 0.00 0.00 27 1010.3
20240525020029 66 254 1.0 5.0 0.00 0.00 0.00 27 1002.7
20240525015604 66 182 0.0 3.0 0.00 0.00 0.00 29 1002.7
20240525015524 67 182 1.0 3.0 0.00 0.00 0.00 28 1010.1
20240525015126 66 201 1.0 5.0 0.00 0.00 0.00 28 1002.6
20240525015030 67 205 1.0 5.0 0.00 0.00 0.00 28 1010.1
20240525014543 66 169 1.0 4.0 0.00 0.00 0.00 28 1002.5
20240525014529 67 196 1.0 4.0 0.00 0.00 0.00 28 1010.2
20240525014111 67 224 2.0 6.0 0.00 0.00 0.00 29 1010.0
20240525014022 66 204 2.0 6.0 0.00 0.00 0.00 28 1002.4
20240525013605 66 202 1.0 6.0 0.00 0.00 0.00 28 1002.3
20240525013529 67 231 3.0 6.0 0.00 0.00 0.00 28 1009.9
20240525013109 66 238 2.0 7.0 0.00 0.00 0.00 29 1002.4
20240525013042 67 191 2.0 7.0 0.00 0.00 0.00 29 1009.9
20240525012533 67 163 2.0 7.0 0.00 0.00 0.00 29 1009.8
20240525012506 66 205 2.0 7.0 0.00 0.00 0.00 29 1002.3
20240525012053 66 214 1.0 4.0 0.00 0.00 0.00 30 1002.3
20240525012035 67 213 2.0 4.0 0.00 0.00 0.00 30 1010.0
20240525011620 66 206 1.0 4.0 0.00 0.00 0.00 30 1002.3
20240525011527 67 209 1.0 4.0 0.00 0.00 0.00 30 1009.7
20240525011039 67 185 2.0 4.0 0.00 0.00 0.00 30 1009.8
20240525011010 66 100 2.0 4.0 0.00 0.00 0.00 30 1002.3
20240525010553 66 170 1.0 6.0 0.00 0.00 0.00 31 1002.3
20240525010541 67 170 1.0 6.0 0.00 0.00 0.00 31 1009.8
20240525010117 66 160 1.0 6.0 0.00 0.00 0.00 30 1002.3
20240525010031 67 215 2.0 6.0 0.00 0.00 0.00 30 1009.8
20240525005544 67 248 3.0 7.0 0.00 0.00 0.00 30 1009.8
20240525005516 66 136 2.0 7.0 0.00 0.00 0.00 30 1002.2
20240525005059 66 227 2.0 9.0 0.00 0.00 0.00 30 1002.1
20240525005025 67 123 3.0 9.0 0.00 0.00 0.00 30 1009.7
20240525004621 66 173 1.0 9.0 0.00 0.00 0.00 30 1002.1
20240525004535 67 171 2.0 9.0 0.00 0.00 0.00 30 1009.6
20240525004144 66 213 1.0 7.0 0.00 0.00 0.00 30 1002.1
20240525004123 67 216 1.0 7.0 0.00 0.00 0.00 30 1009.7
20240525003616 66 252 1.0 6.0 0.00 0.00 0.00 30 1002.1
20240525003525 67 134 3.0 6.0 0.00 0.00 0.00 30 1009.6
20240525003035 67 199 2.0 6.0 0.00 0.00 0.00 30 1009.6
20240525003015 66 195 1.0 5.0 0.00 0.00 0.00 31 1002.1
20240525002554 66 225 2.0 8.0 0.00 0.00 0.00 30 1002.0
20240525002534 67 147 2.0 8.0 0.00 0.00 0.00 30 1009.6
20240525002117 67 157 2.0 8.0 0.00 0.00 0.00 29 1002.0
20240525002024 67 188 2.0 8.0 0.00 0.00 0.00 29 1009.4
20240525001537 67 186 3.0 5.0 0.00 0.00 0.00 29 1009.7
20240525001519 67 184 2.0 5.0 0.00 0.00 0.00 29 1002.2
20240525001058 67 179 2.0 6.0 0.00 0.00 0.00 29 1002.1
20240525001038 67 171 3.0 6.0 0.00 0.00 0.00 29 1009.6
20240525000623 67 190 2.0 7.0 0.00 0.00 0.00 29 1002.1
20240525000550 68 159 2.0 7.0 0.00 0.00 0.00 29 1009.7
20240525000123 67 188 2.0 7.0 0.00 0.00 0.00 29 1002.1
20240525000041 68 224 3.0 7.0 0.00 0.00 0.00 29 1009.7
20240524235541 67 191 2.0 7.0 0.00 0.00 0.00 29 1002.1
20240524235524 68 173 3.0 7.0 0.00 0.00 0.00 28 1009.7
20240524235105 68 262 2.0 7.0 0.00 0.00 0.00 28 1002.3
20240524235034 68 229 3.0 7.0 0.00 0.00 0.00 28 1009.9
20240524234626 68 163 2.0 7.0 0.00 0.00 0.00 28 1002.3
20240524234545 68 198 2.0 5.0 0.00 0.00 0.00 28 1009.8
20240524234130 68 171 2.0 7.0 0.00 0.00 0.00 28 1002.3
20240524234055 68 193 2.0 7.0 0.00 0.00 0.00 28 1009.9
20240524233526 69 254 3.0 10.0 0.00 0.00 0.00 28 1009.9
20240524233506 68 126 3.0 10.0 0.00 0.00 0.00 28 1002.3
20240524233049 68 186 3.0 10.0 0.00 0.00 0.00 27 1002.3
20240524233029 69 140 3.0 10.0 0.00 0.00 0.00 28 1010.0
20240524232612 69 199 2.0 7.0 0.00 0.00 0.00 28 1002.3
20240524232555 69 152 4.0 7.0 0.00 0.00 0.00 28 1009.9
20240524232112 69 157 2.0 8.0 0.00 0.00 0.00 28 1002.2
20240524232025 69 183 2.0 8.0 0.00 0.00 0.00 28 1009.9
20240524231536 70 250 3.0 8.0 0.00 0.00 0.00 27 1009.8
20240524231512 69 216 3.0 8.0 0.00 0.00 0.00 27 1002.1
20240524231053 69 198 1.0 6.0 0.00 0.00 0.00 27 1002.1
20240524231039 70 147 2.0 6.0 0.00 0.00 0.00 27 1009.9
20240524230616 70 200 2.0 5.0 0.00 0.00 0.00 27 1002.2
20240524230550 70 178 3.0 5.0 0.00 0.00 0.00 27 1009.8
20240524230120 70 175 1.0 4.0 0.00 0.00 0.00 27 1002.2
20240524230038 70 166 1.0 4.0 0.00 0.00 0.00 27 1009.9
20240524225550 70 209 2.0 4.0 0.00 0.00 0.00 27 1009.9
20240524225513 70 261 1.0 4.0 0.00 0.00 0.00 27 1002.2
20240524225058 70 202 1.0 5.0 0.00 0.00 0.00 27 1002.2
20240524225032 70 202 2.0 5.0 0.00 0.00 0.00 27 1010.0
20240524224626 70 227 1.0 6.0 0.00 0.00 0.00 27 1002.3
20240524224540 70 221 1.0 6.0 0.00 0.00 0.00 27 1010.0
20240524224036 70 254 2.0 6.0 0.00 0.00 0.00 26 1002.3
20240524224023 71 212 2.0 6.0 0.00 0.00 0.00 26 1010.1
20240524223558 70 234 2.0 6.0 0.00 0.00 0.00 27 1002.3
20240524223536 71 218 3.0 6.0 0.00 0.00 0.00 27 1010.1
20240524223130 71 204 2.0 6.0 0.00 0.00 0.00 26 1002.3
20240524223026 71 140 2.0 4.0 0.00 0.00 0.00 27 1010.0
20240524222645 71 80 1.0 5.0 0.00 0.00 0.00 26 1002.2
20240524222556 71 86 2.0 5.0 0.00 0.00 0.00 26 1010.1
20240524222049 71 102 3.0 7.0 0.00 0.00 0.00 25 1010.0
20240524222022 71 170 2.0 7.0 0.00 0.00 0.00 25 1002.1
20240524221606 71 157 2.0 7.0 0.00 0.00 0.00 26 1002.1
20240524221529 72 213 2.0 7.0 0.00 0.00 0.00 26 1010.0
20240524221133 72 146 2.0 6.0 0.00 0.00 0.00 26 1002.2
20240524221043 72 194 2.0 6.0 0.00 0.00 0.00 26 1010.1
20240524220633 72 103 2.0 5.0 0.00 0.00 0.00 23 1002.1
20240524220529 72 92 3.0 5.0 0.00 0.00 0.00 25 1010.1
20240524220039 72 78 2.0 4.0 0.00 0.00 0.00 24 1010.1
20240524220016 71 130 2.0 4.0 0.00 0.00 0.00 24 1002.1
20240524215552 71 38 2.0 4.0 0.00 0.00 0.00 24 1002.1
20240524215539 71 39 2.0 4.0 0.00 0.00 0.00 24 1010.2
20240524215107 70 67 1.0 3.0 0.00 0.00 0.00 26 1002.2
20240524215042 71 67 2.0 3.0 0.00 0.00 0.00 25 1010.2
20240524214534 71 293 2.0 4.0 0.00 0.00 0.00 24 1010.3
20240524214505 71 290 1.0 4.0 0.00 0.00 0.00 24 1002.3
20240524214049 71 31 2.0 4.0 0.00 0.00 0.00 25 1002.3
20240524214036 72 31 2.0 4.0 0.00 0.00 0.00 25 1010.3
20240524213615 71 355 0.0 4.0 0.00 0.00 0.00 23 1002.2
20240524213526 72 355 1.0 4.0 0.00 0.00 0.00 23 1010.2
20240524213135 71 36 1.0 7.0 0.00 0.00 0.00 24 1002.3
20240524213056 72 53 1.0 7.0 0.00 0.00 0.00 24 1010.3
20240524212547 72 104 3.0 7.0 0.00 0.00 0.00 22 1010.4
20240524212511 72 81 2.0 7.0 0.00 0.00 0.00 22 1002.3
20240524212055 72 98 1.0 4.0 0.00 0.00 0.00 22 1002.3
20240524212030 73 82 1.0 4.0 0.00 0.00 0.00 23 1010.4
20240524211617 72 168 0.0 2.0 0.00 0.00 0.00 23 1002.3
20240524211600 72 101 0.0 2.0 0.00 0.00 0.00 24 1010.5
20240524211116 72 126 1.0 4.0 0.00 0.00 0.00 23 1002.3
20240524211029 72 149 1.0 4.0 0.00 0.00 0.00 23 1010.5
20240524210539 72 74 2.0 4.0 0.00 0.00 0.00 25 1010.5
20240524210515 72 73 1.0 4.0 0.00 0.00 0.00 24 1002.4
20240524210112 72 57 1.0 4.0 0.00 0.00 0.00 25 1010.6
20240524210020 72 59 1.0 4.0 0.00 0.00 0.00 24 1002.4
20240524205601 72 36 2.0 4.0 0.00 0.00 0.00 25 1002.5
20240524205534 72 42 2.0 4.0 0.00 0.00 0.00 25 1010.7
20240524205127 71 9 1.0 7.0 0.00 0.00 0.00 25 1002.5
20240524205025 71 46 2.0 7.0 0.00 0.00 0.00 27 1010.7
20240524204543 71 89 3.0 7.0 0.00 0.00 0.00 26 1002.5
20240524204523 71 68 3.0 8.0 0.00 0.00 0.00 26 1010.6
20240524204108 70 88 2.0 8.0 0.00 0.00 0.00 27 1002.6
20240524204054 71 78 4.0 8.0 0.00 0.00 0.00 25 1010.8
20240524203609 70 24 2.0 7.0 0.00 0.00 0.00 27 1002.6
20240524203524 71 29 3.0 7.0 0.00 0.00 0.00 28 1010.9
20240524203034 71 67 3.0 6.0 0.00 0.00 0.00 26 1010.9
20240524203007 71 63 3.0 7.0 0.00 0.00 0.00 26 1002.7
20240524202608 71 28 3.0 7.0 0.00 0.00 0.00 28 1011.0
20240524202508 71 35 3.0 7.0 0.00 0.00 0.00 27 1002.9
20240524202053 71 58 2.0 5.0 0.00 0.00 0.00 27 1002.9
20240524202028 71 58 2.0 5.0 0.00 0.00 0.00 27 1011.1
20240524201616 70 321 2.0 5.0 0.00 0.00 0.00 28 1003.0
20240524201538 71 51 3.0 9.0 0.00 0.00 0.00 28 1011.2
20240524201117 69 158 2.0 9.0 0.00 0.00 0.00 27 1003.0
20240524201029 70 121 3.0 9.0 0.00 0.00 0.00 27 1011.1
20240524200539 69 28 3.0 10.0 0.00 0.00 0.00 29 1011.1
20240524200514 69 115 3.0 10.0 0.00 0.00 0.00 29 1002.9
20240524200058 69 327 3.0 10.0 0.00 0.00 0.00 29 1002.8
20240524200042 69 73 4.0 10.0 0.00 0.00 0.00 29 1011.1
20240524195622 69 63 4.0 9.0 0.00 0.00 0.00 28 1003.1
20240524195552 69 65 4.0 9.0 0.00 0.00 0.00 28 1011.3
20240524195122 69 119 3.0 9.0 0.00 0.00 0.00 28 1003.0
20240524195023 70 69 3.0 9.0 0.00 0.00 0.00 28 1011.4
20240524194541 69 70 2.0 8.0 0.00 0.00 0.00 31 1003.0
20240524194526 69 71 3.0 8.0 0.00 0.00 0.00 31 1011.4
20240524194104 68 39 2.0 8.0 0.00 0.00 0.00 30 1003.2
20240524194037 69 64 2.0 8.0 0.00 0.00 0.00 30 1011.4
20240524193529 68 88 3.0 9.0 0.00 0.00 0.00 30 1011.4
20240524193502 67 24 3.0 9.0 0.00 0.00 0.00 30 1003.2
20240524193047 67 84 4.0 11.0 0.00 0.00 0.00 29 1003.3
20240524193026 68 94 5.0 11.0 0.00 0.00 0.00 29 1011.6
20240524192609 68 71 5.0 11.0 0.00 0.00 0.00 29 1011.8
20240524192525 68 66 5.0 11.0 0.00 0.00 0.00 29 1003.4
20240524192111 67 45 3.0 6.0 0.00 0.00 0.00 29 1003.5
20240524192028 68 24 3.0 6.0 0.00 0.00 0.00 31 1011.8
20240524191536 68 84 2.0 7.0 0.00 0.00 0.00 28 1011.9
20240524191507 67 84 1.0 7.0 0.00 0.00 0.00 28 1003.6
20240524191108 68 119 3.0 6.0 0.00 0.00 0.00 29 1012.0
20240524191011 67 88 3.0 6.0 0.00 0.00 0.00 29 1003.6
20240524190553 67 86 2.0 6.0 0.00 0.00 0.00 30 1003.6
20240524190529 68 41 3.0 8.0 0.00 0.00 0.00 29 1012.0
20240524190116 67 143 1.0 8.0 0.00 0.00 0.00 29 1003.7
20240524190100 67 157 2.0 8.0 0.00 0.00 0.00 29 1012.1
20240524185618 67 59 4.0 6.0 0.00 0.00 0.00 28 1003.6
20240524185550 68 101 3.0 7.0 0.00 0.00 0.00 28 1012.1
20240524185120 67 17 3.0 5.0 0.00 0.00 0.00 26 1003.7
20240524185039 67 37 3.0 7.0 0.00 0.00 0.00 26 1012.1
20240524184625 66 44 2.0 7.0 0.00 0.00 0.00 28 1003.7
20240524184528 67 36 2.0 7.0 0.00 0.00 0.00 29 1012.1
20240524184042 67 62 3.0 6.0 0.00 0.00 0.00 29 1012.1
20240524184019 66 84 2.0 6.0 0.00 0.00 0.00 29 1003.8
20240524183603 66 64 2.0 9.0 0.00 0.00 0.00 30 1003.7
20240524183544 66 80 2.0 9.0 0.00 0.00 0.00 30 1012.1
20240524183103 66 101 4.0 9.0 0.00 0.00 0.00 29 1003.9
20240524183030 67 63 4.0 9.0 0.00 0.00 0.00 30 1012.3
20240524182626 66 78 2.0 8.0 0.00 0.00 0.00 30 1004.0
20240524182601 67 83 2.0 8.0 0.00 0.00 0.00 30 1012.3
20240524182030 66 69 3.0 6.0 0.00 0.00 0.00 28 1012.4
20240524182002 65 84 3.0 6.0 0.00 0.00 0.00 28 1004.1
20240524181546 65 65 1.0 6.0 0.00 0.00 0.00 29 1004.1
20240524181533 65 65 1.0 6.0 0.00 0.00 0.00 30 1012.3
20240524181113 65 71 3.0 6.0 0.00 0.00 0.00 29 1004.2
20240524181045 65 68 3.0 5.0 0.00 0.00 0.00 29 1012.5
20240524180611 65 71 2.0 5.0 0.00 0.00 0.00 29 1004.3
20240524180535 65 51 3.0 5.0 0.00 0.00 0.00 29 1012.6
20240524180026 65 68 3.0 7.0 0.00 0.00 0.00 31 1012.5
20240524180008 65 43 2.0 7.0 0.00 0.00 0.00 30 1004.1
20240524175551 64 70 2.0 5.0 0.00 0.00 0.00 30 1004.0
20240524175526 65 68 2.0 4.0 0.00 0.00 0.00 30 1012.5
20240524175113 64 302 2.0 8.0 0.00 0.00 0.00 28 1004.1
20240524175038 64 128 2.0 8.0 0.00 0.00 0.00 28 1012.6
20240524174529 64 119 3.0 8.0 0.00 0.00 0.00 28 1012.6
20240524174507 63 134 3.0 8.0 0.00 0.00 0.00 28 1004.2
20240524174051 63 63 1.0 9.0 0.00 0.00 0.00 29 1004.3
20240524174030 63 63 2.0 9.0 0.00 0.00 0.00 29 1012.7
20240524173614 63 80 2.0 9.0 0.00 0.00 0.00 30 1004.2
20240524173541 63 82 3.0 9.0 0.00 0.00 0.00 29 1012.6
20240524173030 63 117 4.0 7.0 0.00 0.00 0.00 28 1012.6
20240524173008 63 128 3.0 7.0 0.00 0.00 0.00 28 1004.2
20240524172552 63 42 2.0 6.0 0.00 0.00 0.00 29 1004.4
20240524172531 63 25 3.0 6.0 0.00 0.00 0.00 29 1012.8
20240524172115 63 90 2.0 8.0 0.00 0.00 0.00 25 1004.4
20240524172102 64 166 2.0 8.0 0.00 0.00 0.00 25 1012.8
20240524171618 63 131 2.0 8.0 0.00 0.00 0.00 26 1004.4
20240524171533 63 148 2.0 8.0 0.00 0.00 0.00 26 1012.8
20240524171038 63 57 1.0 6.0 0.00 0.00 0.00 27 1012.9
20240524171015 62 57 0.0 6.0 0.00 0.00 0.00 27 1004.5
20240524170559 62 103 2.0 6.0 0.00 0.00 0.00 27 1004.5
20240524170542 62 166 2.0 6.0 0.00 0.00 0.00 27 1012.9
20240524170125 62 194 2.0 8.0 0.00 0.00 0.00 27 1004.5
20240524170032 62 59 2.0 8.0 0.00 0.00 0.00 28 1012.9
20240524165544 61 126 3.0 8.0 0.00 0.00 0.00 27 1013.0
20240524165519 61 115 3.0 8.0 0.00 0.00 0.00 27 1004.6
20240524165102 61 146 1.0 6.0 0.00 0.00 0.00 26 1004.5
20240524165025 61 100 2.0 6.0 0.00 0.00 0.00 26 1013.0
20240524164604 61 82 2.0 5.0 0.00 0.00 0.00 28 1004.6
20240524164537 61 126 2.0 5.0 0.00 0.00 0.00 28 1013.0
20240524164128 60 86 1.0 6.0 0.00 0.00 0.00 27 1004.7
20240524164028 60 139 3.0 6.0 0.00 0.00 0.00 27 1013.1
20240524163545 60 73 2.0 6.0 0.00 0.00 0.00 27 1004.7
20240524163529 60 71 2.0 6.0 0.00 0.00 0.00 27 1013.1
20240524163106 60 80 2.0 6.0 0.00 0.00 0.00 26 1004.6
20240524163040 60 79 3.0 6.0 0.00 0.00 0.00 26 1013.1
20240524162532 60 74 3.0 7.0 0.00 0.00 0.00 27 1013.2
20240524162504 60 70 3.0 7.0 0.00 0.00 0.00 26 1004.7
20240524162048 60 142 1.0 4.0 0.00 0.00 0.00 27 1004.7
20240524162035 60 142 2.0 4.0 0.00 0.00 0.00 27 1013.4
20240524161611 59 103 1.0 7.0 0.00 0.00 0.00 27 1004.8
20240524161545 60 114 2.0 7.0 0.00 0.00 0.00 27 1013.4
20240524161112 59 54 2.0 7.0 0.00 0.00 0.00 26 1004.9
20240524161036 59 93 3.0 7.0 0.00 0.00 0.00 26 1013.5
20240524160635 58 133 3.0 6.0 0.00 0.00 0.00 27 1004.9
20240524160546 59 129 2.0 4.0 0.00 0.00 0.00 28 1013.6
20240524160135 57 141 1.0 4.0 0.00 0.00 0.00 27 1005.0
20240524160034 58 267 2.0 4.0 0.00 0.00 0.00 27 1013.7
20240524155638 57 73 2.0 5.0 0.00 0.00 0.00 27 1005.1
20240524155603 57 69 3.0 5.0 0.00 0.00 0.00 27 1013.7
20240524155036 57 57 2.0 11.0 0.00 0.00 0.00 27 1005.1
20240524155023 57 62 3.0 11.0 0.00 0.00 0.00 27 1013.8
20240524154600 56 57 3.0 11.0 0.00 0.00 0.00 29 1005.0
20240524154535 57 67 3.0 11.0 0.00 0.00 0.00 29 1013.9
20240524154121 56 211 2.0 6.0 0.00 0.00 0.00 31 1005.2
20240524154026 56 178 2.0 4.0 0.00 0.00 0.00 30 1013.9
20240524153644 55 102 2.0 4.0 0.00 0.00 0.00 29 1005.1
20240524153555 56 102 3.0 5.0 0.00 0.00 0.00 30 1013.7
20240524153048 55 85 2.0 5.0 0.00 0.00 0.00 29 1013.9
20240524153020 55 85 2.0 5.0 0.00 0.00 0.00 30 1005.2
20240524152607 55 93 2.0 5.0 0.00 0.00 0.00 30 1005.0
20240524152528 55 90 2.0 5.0 0.00 0.00 0.00 29 1013.9
20240524152123 54 49 1.0 5.0 0.00 0.00 0.00 31 1005.2
20240524152039 55 117 2.0 5.0 0.00 0.00 0.00 29 1013.9
20240524151646 54 90 2.0 5.0 0.00 0.00 0.00 33 1005.1
20240524151528 54 74 1.0 5.0 0.00 0.00 0.00 33 1013.7
20240524151044 53 78 2.0 5.0 0.00 0.00 0.00 34 1005.1
20240524151029 54 71 2.0 4.0 0.00 0.00 0.00 34 1013.8
20240524150605 53 89 2.0 5.0 0.00 0.00 0.00 35 1005.1
20240524150539 54 81 2.0 5.0 0.00 0.00 0.00 36 1013.9
20240524150031 53 69 2.0 5.0 0.00 0.00 0.00 33 1013.9
20240524150002 53 64 2.0 5.0 0.00 0.00 0.00 33 1005.2
20240524145546 53 126 1.0 4.0 0.00 0.00 0.00 33 1005.2
20240524145533 53 181 2.0 4.0 0.00 0.00 0.00 33 1013.9
20240524145112 52 73 1.0 4.0 0.00 0.00 0.00 34 1005.3
20240524145025 53 82 2.0 4.0 0.00 0.00 0.00 34 1014.0
20240524144632 52 72 1.0 5.0 0.00 0.00 0.00 34 1005.3
20240524144553 53 65 2.0 5.0 0.00 0.00 0.00 35 1014.0
20240524144039 52 146 2.0 6.0 0.00 0.00 0.00 35 1014.0
20240524144004 52 57 2.0 6.0 0.00 0.00 0.00 35 1005.2
20240524143549 52 69 3.0 6.0 0.00 0.00 0.00 36 1014.0
20240524143509 51 69 2.0 6.0 0.00 0.00 0.00 35 1005.2
20240524143058 51 222 1.0 6.0 0.00 0.00 0.00 36 1005.1
20240524143028 52 101 1.0 6.0 0.00 0.00 0.00 36 1014.0
20240524142612 51 106 2.0 6.0 0.00 0.00 0.00 35 1014.0
20240524142529 51 152 1.0 6.0 0.00 0.00 0.00 35 1005.2
20240524142113 50 188 0.0 3.0 0.00 0.00 0.00 37 1005.1
20240524142031 51 188 0.0 3.0 0.00 0.00 0.00 36 1013.9
20240524141636 50 90 1.0 6.0 0.00 0.00 0.00 35 1005.1
20240524141538 51 100 1.0 6.0 0.00 0.00 0.00 36 1013.9
20240524141051 50 175 2.0 5.0 0.00 0.00 0.00 36 1014.0
20240524141013 50 119 1.0 4.0 0.00 0.00 0.00 37 1005.1
20240524140557 49 202 0.0 3.0 0.00 0.00 0.00 37 1005.1
20240524140531 50 198 1.0 3.0 0.00 0.00 0.00 37 1014.0
20240524140120 49 148 0.0 3.0 0.00 0.00 0.00 37 1005.0
20240524140043 49 153 1.0 3.0 0.00 0.00 0.00 37 1013.9
20240524135621 48 194 1.0 3.0 0.00 0.00 0.00 37 1004.9
20240524135531 49 186 1.0 3.0 0.00 0.00 0.00 38 1013.9
20240524135043 48 154 1.0 3.0 0.00 0.00 0.00 39 1013.8
20240524135018 48 154 0.0 3.0 0.00 0.00 0.00 38 1004.9
20240524134602 48 154 0.0 3.0 0.00 0.00 0.00 39 1004.9
20240524134525 48 154 1.0 3.0 0.00 0.00 0.00 39 1013.7
20240524134125 47 185 0.0 2.0 0.00 0.00 0.00 38 1004.9
20240524134057 48 185 1.0 2.0 0.00 0.00 0.00 39 1013.9
20240524133628 47 183 0.0 2.0 0.00 0.00 0.00 41 1004.9
20240524133544 48 176 1.0 3.0 0.00 0.00 0.00 41 1013.8
20240524133035 48 196 0.0 4.0 0.00 0.00 0.00 40 1013.7
20240524133005 47 196 0.0 4.0 0.00 0.00 0.00 40 1004.8
20240524132553 47 198 1.0 4.0 0.00 0.00 0.00 39 1004.8
20240524132537 47 199 2.0 4.0 0.00 0.00 0.00 39 1013.7
20240524132111 46 190 1.0 3.0 0.00 0.00 0.00 39 1004.8
20240524132029 47 190 2.0 4.0 0.00 0.00 0.00 39 1013.7
20240524131635 46 144 0.0 3.0 0.00 0.00 0.00 39 1004.8
20240524131538 47 206 0.0 2.0 0.00 0.00 0.00 41 1013.6
20240524131050 46 207 1.0 2.0 0.00 0.00 0.00 41 1013.8
20240524131010 46 209 0.0 2.0 0.00 0.00 0.00 41 1004.9
20240524130554 46 158 0.0 2.0 0.00 0.00 0.00 41 1004.8
20240524130532 46 158 1.0 2.0 0.00 0.00 0.00 41 1013.7
20240524130118 45 178 0.0 3.0 0.00 0.00 0.00 42 1004.7
20240524130023 45 178 1.0 3.0 0.00 0.00 0.00 43 1013.7
20240524125537 45 178 0.0 3.0 0.00 0.00 0.00 42 1004.8
20240524125524 45 178 1.0 3.0 0.00 0.00 0.00 42 1013.7
20240524125106 45 139 1.0 3.0 0.00 0.00 0.00 43 1013.6
20240524125019 44 138 0.0 3.0 0.00 0.00 0.00 43 1004.7
20240524124623 44 124 1.0 3.0 0.00 0.00 0.00 42 1004.7
20240524124527 44 124 2.0 3.0 0.00 0.00 0.00 43 1013.7
20240524124037 43 263 0.0 1.0 0.00 0.00 0.00 45 1013.6
20240524124000 43 263 0.0 1.0 0.00 0.00 0.00 45 1004.7
20240524123549 43 263 0.0 1.0 0.00 0.00 0.00 45 1013.6
20240524123525 43 265 0.0 1.0 0.00 0.00 0.00 47 1004.7
20240524123122 42 271 0.0 0.0 0.00 0.00 0.00 46 1004.7
20240524123030 43 271 0.0 0.0 0.00 0.00 0.00 46 1013.7
20240524122544 43 271 0.0 0.0 0.00 0.00 0.00 46 1013.6
20240524122506 42 271 0.0 0.0 0.00 0.00 0.00 46 1004.7
20240524122050 42 271 0.0 2.0 0.00 0.00 0.00 46 1004.6
20240524122024 43 271 0.0 2.0 0.00 0.00 0.00 46 1013.5
20240524121613 42 271 0.0 2.0 0.00 0.00 0.00 45 1004.5
20240524121535 43 271 1.0 2.0 0.00 0.00 0.00 44 1013.4
20240524121044 43 163 1.0 2.0 0.00 0.00 0.00 43 1013.3
20240524121012 42 163 0.0 2.0 0.00 0.00 0.00 43 1004.3
20240524120556 43 167 0.0 3.0 0.00 0.00 0.00 44 1004.2
20240524120526 43 105 0.0 1.0 0.00 0.00 0.00 44 1013.1
20240524120117 43 105 0.0 4.0 0.00 0.00 0.00 43 1004.2
20240524120025 43 105 0.0 4.0 0.00 0.00 0.00 43 1013.1
20240524115535 43 182 1.0 4.0 0.00 0.00 0.00 43 1013.0
20240524115509 43 191 0.0 3.0 0.00 0.00 0.00 43 1004.1
20240524115108 44 82 1.0 3.0 0.00 0.00 0.00 44 1012.9
20240524115008 43 79 0.0 3.0 0.00 0.00 0.00 43 1004.0
20240524114557 43 63 0.0 3.0 0.00 0.00 0.00 43 1004.0
20240524114528 44 63 1.0 3.0 0.00 0.00 0.00 43 1012.9
20240524114115 43 46 1.0 3.0 0.00 0.00 0.00 43 1003.9
20240524114038 44 71 1.0 3.0 0.00 0.00 0.00 42 1012.9
20240524113635 44 78 1.0 3.0 0.00 0.00 0.00 42 1003.8
20240524113548 44 153 1.0 4.0 0.00 0.00 0.00 42 1012.9
20240524113038 44 109 1.0 4.0 0.00 0.00 0.00 41 1012.9
20240524113009 44 109 1.0 4.0 0.00 0.00 0.00 41 1003.9
20240524112553 44 78 1.0 4.0 0.00 0.00 0.00 41 1003.9
20240524112539 44 78 2.0 4.0 0.00 0.00 0.00 41 1012.9
20240524112113 44 130 1.0 4.0 0.00 0.00 0.00 40 1003.8
20240524112029 44 126 1.0 4.0 0.00 0.00 0.00 40 1012.9
20240524111542 45 88 2.0 4.0 0.00 0.00 0.00 39 1012.7
20240524111513 44 88 1.0 4.0 0.00 0.00 0.00 39 1003.7
20240524111057 44 82 0.0 4.0 0.00 0.00 0.00 39 1003.6
20240524111023 45 82 1.0 4.0 0.00 0.00 0.00 39 1012.7
20240524110621 45 116 1.0 4.0 0.00 0.00 0.00 38 1003.6
20240524110555 45 107 1.0 5.0 0.00 0.00 0.00 38 1012.6
20240524110122 45 61 2.0 5.0 0.00 0.00 0.00 38 1003.4
20240524110025 45 90 2.0 5.0 0.00 0.00 0.00 38 1012.6
20240524105624 45 77 2.0 6.0 0.00 0.00 0.00 37 1003.3
20240524105530 46 84 2.0 6.0 0.00 0.00 0.00 37 1012.5
20240524105100 47 65 3.0 4.0 0.00 0.00 0.00 37 1012.5
20240524105000 46 80 2.0 4.0 0.00 0.00 0.00 36 1003.3